www.pogodaiklimat.ru

Погода и климат >> Архив погоды >> Россия >> Приморский край >> Лазо


ПОГОДА в Лазо

  • Прогноз погоды в Лазо
  • Монитор погоды в Лазо

АРХИВ ПОГОДЫ в Лазо

Время (UTC), дата Ветер
(напр.,м/с)
 
Видим.   Явления Облачность Т
(С)
Тd
(С)
f
(%)
Тe
(С)
Тes
(С)
Комфортность P
(гПа)
Po
(гПа)
Тmin
(С)
Tmax
(С)
R
(мм)
R24
(мм)
S
(см)
15 15.09 СВ 1 50 км 7 баллов +7.9 +7.1 95 +7 +7 1014.9 985.3
18 15.09 штиль 0 50 км 10 баллов +6.9 +6.5 97 +6 +6 1015.0 985.3
21 15.09 штиль 0 50 км 10/0
[As op]
+7.0 +6.3 95 +6 +6 1013.5 983.8 +6.5
00 16.09 штиль 0 50 км 4/0
[Cc]
+13.2 +8.6 74 +13 +20 1012.3 983.3
03 16.09 СЗ 1 50 км ясно +23.0 +7.9 38 +24 +38 комфорт 1010.7 982.7
06 16.09 СЗ 3 50 км 4 балла +23.2 +8.8 40 +25 +28 комфорт 1009.2 981.3
09 16.09 С 1 50 км 3/3 600 м
[Cu hum]
+17.7 +9.6 59 +19 +19 1012.5 984.0 +24.6
12 16.09 СЗ 1 50 км ясно +11.2 +5.7 69 +11 +11 1014.5 985.3
15 16.09 С 1 50 км ясно +7.9 +5.9 87 +7 +7 1016.3 986.7
18 16.09 штиль 0 50 км ясно +6.4 +4.1 85 +5 +5 1016.5 986.7
21 16.09 штиль 0 50 км ясно +5.0 +3.3 89 +4 +4 1017.8 987.7 +5.0
00 17.09 СЗ 2 50 км ясно +14.4 +1.8 42 +14 +20 1017.1 988.0 +4.4
03 17.09 ЮЗ 1 50 км ясно +20.1 +1.0 28 +21 +35 комфорт 1016.4 988.0
06 17.09 ЮЗ 1 50 км ясно +21.7 +1.9 27 +21 +29 комфорт 1013.5 985.3
09 17.09 Ю 1 50 км ясно +15.8 +8.3 61 +17 +17 1013.4 984.6 +22.1
12 17.09 С 1 50 км ясно +9.3 +8.1 92 +9 +9 1016.2 986.7
15 17.09 штиль 0 50 км 10 баллов +6.9 +6.2 95 +6 +6 1015.0 985.3
18 17.09 штиль 0 50 км 10 баллов +5.5 +4.9 96 +4 +4 1013.8 984.0
21 17.09 штиль 0 10 км гроза, ливневой дождь 10/10 600 м
[Cb cap]
+6.5 +6.0 97 +5 +5 1010.8 981.0 +5.0 0.0
00 18.09 СЗ 3 50 км {гроза, ливн. осадки} 4/4 600 м
[Cu hum]
+12.4 +4.0 57 +11 +14 1012.0 982.8
03 18.09 СЗ 3-12
{12}
50 км 6/6 600 м
[Cb cap]
+14.2 +0.9 40 +14 +17 1011.0 982.0
06 18.09 СЗ 4-10
{14}
50 км 4/4 600 м
[Cu hum]
+14.0 -2.9 31 +13 +15 1013.0 984.0
09 18.09 З 3
{11}
50 км 4/4 600 м
[Cb cap]
+10.4 -4.4 35 +9 +9 1014.7 985.3 +15.0 3
12 18.09 С 1
{14}
50 км ясно +6.3 -0.5 62 +6 +6 1016.9 986.9
15 18.09 штиль 0 50 км ясно +3.4 +0.5 81 +2 +2 1016.8 986.7
18 18.09 С 1 50 км ясно +1.1 +0.1 93 -1 -1 1015.7 985.3
21 18.09 В 1 50 км 4/4 600 м
[Cb cap]
+2.5 +0.1 84 +1 +1 1015.0 984.7 +0.4
00 19.09 В 2 50 км 4/4 600 м
[Cb cap]
+10.3 +1.2 53 +9 +13 1013.4 983.9
03 19.09 СЗ 4 50 км ясно +15.5 -3.4 27 +15 +23 1012.8 984.0
06 19.09 З 3 50 км ясно +17.2 -1.5 28 +17 +22 1011.3 982.7
09 19.09 З 1
{12}
50 км ясно +13.7 -1.9 34 +14 +14 1013.0 984.0 +17.4
12 19.09 СЗ 2 50 км ясно +11.5 -2.3 38 +11 +11 1014.6 985.3
15 19.09 штиль 0 50 км ясно +4.7 +1.4 79 +4 +4 1018.0 988.0
18 19.09 штиль 0 50 км ясно +1.7 +0.7 93 +1 +1 1019.7 989.3
21 19.09 штиль 0 50 км ясно 0.0 -0.6 96 -1 -1 1020.1 989.3 0.0
00 20.09 СВ 1 50 км ясно +12.7 +2.8 51 +13 +19 1018.9 989.5 -0.1
03 20.09 СЗ 2 50 км ясно +18.9 +1.8 32 +20 +31 1017.9 989.3
06 20.09 СВ 2 50 км ясно +20.6 +2.9 31 +22 +28 комфорт 1016.4 988.0
09 20.09 штиль 0 50 км ясно +14.1 +6.4 60 +14 +14 1019.8 990.7 +21.0
12 20.09 штиль 0 50 км ясно +7.1 +5.6 90 +6 +6 1023.2 993.3
15 20.09 штиль 0 50 км ясно +4.6 +3.9 95 +3 +3 1023.5 993.3
18 20.09 штиль 0 50 км ясно +3.0 +2.6 97 +2 +2 1023.7 993.3
21 20.09 штиль 0 50 км 6/6 600 м
[Cb cap]
+4.6 +3.9 95 +3 +3 1022.3 992.0 +2.8
00 21.09 штиль 0 50 км {гроза, ливн. осадки} 4/4 600 м
[Cb cap]
+10.5 +7.7 83 +10 +14 1021.8 992.2
03 21.09 Ю 1 50 км 4 балла +19.8 +9.1 50 +22 +30 комфорт 1019.2 990.7
06 21.09 СЗ 2 50 км 2 балла +20.4 +6.0 39 +22 +26 комфорт 1019.2 990.7
09 21.09 СВ 1 50 км 3/1 600 м
[Cu hum Ci fib]
+15.3 +5.2 51 +16 +16 1021.0 992.0 +21.8 0.3
12 21.09 штиль 0 50 км ясно +7.5 +6.0 90 +7 +7 1024.6 994.7
15 21.09 С 1 50 км 7 баллов +5.6 +4.6 93 +4 +4 1024.8 994.7
18 21.09 штиль 0 50 км ясно +3.1 +2.7 97 +2 +2 1026.5 996.0
21 21.09 штиль 0 50 км 3/0
[Ci fib]
+1.8 +1.3 96 +1 +1 1026.8 996.1 +1.6
00 22.09 штиль 0 50 км 3/0
[Cs]
+11.1 +6.4 73 +11 +17 1025.8 996.1 +1.3
03 22.09 З 1 50 км 7 баллов +18.8 +3.4 36 +20 +24 1023.5 994.7
06 22.09 СВ 2 50 км 9 баллов +19.4 +4.7 38 +20 +21 1021.9 993.3
09 22.09 С 1 50 км 9/0
[As trans Ci fib]
+15.0 +5.5 53 +16 +16 1022.4 993.3 +20.2
12 22.09 штиль 0 50 км 10/0
[As op]
+12.2 +6.0 66 +12 +12 1021.2 991.7

 

Местоположение метеостанции Лазо (Приморский край, Россия): широта 43.40 долгота 133.80 высота над уровнем моря 245 м.

В архиве по умолчанию представлена погода в Лазо за последнюю неделю. Архивные данные за месяц целиком и за предыдущие месяцы, начиная с января 2011 года, Вы можете получить, выбрав интересующий диапазон дат из раскрывающегося списка и нажав кнопку "Ввод!".


*Определитесь, кто Вы:
робот инопланетянин человек

Внимание! Время в таблицах - всемирное. Для получения местного времени необходимо прибавить поправку, которая равна 10 ч.

Смотрите также архив погоды в соседних городах и на ближайших метеорологических станциях:

Погода в Лучегорске (Приморский край, Россия) (47 км)
Погода в Преображении (Приморский край, Россия) (56 км)
Погода в Партизанске (Приморский край, Россия) (71 км)
Погода в Чугуевке (Приморский край, Россия) (83 км)
Погода в Анучино (Приморский край, Россия) (90 км)
Погода в Находке (Приморский край, Россия) (105 км)
Погода в Многоудобном (Приморский край, Россия) (108 км)
Погода в Ольге (Приморский край, Россия) (127 км)
Погода в Кавалерово (Приморский край, Россия) (135 км)
Погода в Дальнегорске (Приморский край, Россия) (144 км)

Пояснения к столбцам:

Ветер - указаны скорость ветра в м/с - средняя за 10 мин, порывы в срок и между сроками (в фигурных скобках) и направление, откуда дует ветер: С - северный, СВ - северо-восточный, В - восточный, ЮВ - юго-восточный, Ю - южный, ЮЗ - юго-западный, З - западный, СЗ - северо-западный.
Видимость - горизонтальная дальность видимости в метрах или километрах. При видимости от 1 до 10 км при отсутствии осадков обычно наблюдается дымка, при ухудшении видимости до 1 км и менее - туман. В сухую погоду видимость может ухудшаться дымом, пылью или мглою.
Явления - указаны атмосферные явления, наблюдавшиеся в срок или в последний час перед сроком; фигурными скобками обозначены явления, наблюдавшиеся между сроками (за 1-3 часа до срока); квадратными скобками обозначены град или гололедные отложения с указанием их диаметра в мм.
Облачность - указаны через наклонную черту общая и нижняя облачность в баллах и высота нижней границы облаков в метрах; квадратными скобками обозначены формы облаков: Ci - перистые, Cs - перисто-слоистые, Cc - перисто-кучевые, Ac - высококучевые, As - высокослоистые, Sc - слоисто-кучевые, Ns - слоисто-дождевые, Cu - кучевые, Cb - кучево-дождевые. Подробнее классификацию облаков см. в Атласе облаков (PDF).
T - Температура воздуха - температура, измеренная на высоте 2 м над землей.
Td - Температура точки росы - температура, при понижении до которой содержащийся в воздухе водяной пар достигнет насыщения.
f - Относительная влажность воздуха - влажноcть воздуха, измеренная на высоте 2 м над землей.
Te - Эффективная температура - температура, которую ощущает одетый по сезону человек в тени. Характеристика душности погоды. При расчете учитывается влияние влажности воздуха и скорости ветра на теплоощущения человека.
Tes - Эффективная температура на солнце - температура, которую ощущает человек, с поправкой на солнечный нагрев. Характеристика знойности погоды. Зависит от высоты солнца над горизонтом, облачности и скорости ветра. Ночью, в пасмурную погоду, а также при ветре 12 м/с и более поправка равна нулю.
P - Атмосферное давление - приведенное к уровню моря атмосферное давление.
Po - Атмосферное давление - измеренное на уровне метеостанции атмосферное давление.
Tmin - Минимальная температура - минимум температуры воздуха на высоте 2 м над землей.
Tmax - Максимальная температура - максимум температуры воздуха на высоте 2 м над землей.
R - Количество осадков - Количество выпавших осадков за период времени, мм. При наведении курсора мыши на число - период времени, за который выпало указанное количество осадков.
R24 - Количество осадков - Количество выпавших осадков за 24 часа, мм.
S - Снежный покров - Высота снежного покрова, см. При наведении курсора мыши на число - состояние снежного покрова и степень покрытия местности в баллах.